Pullman, WA

6:14 PM PST on February 06, 2016 (GMT -0800)
Pullman-Moscow Regional

Weather History for KPUW - March, 2013

Change the Weather History Date:

Thursday, March 14, 2013

  Actual Average Record
Temperature  
Mean Temperature 52 °F 40 °F  
Max Temperature 62 °F 49 °F 68 °F (1992)
Min Temperature 42 °F 32 °F 12 °F (1944)
Degree Days  
Heating Degree Days 13 25  
Month to date heating degree days 333 364  
Since 1 July heating degree days 4759 5067  
Cooling Degree Days 0 0  
Month to date cooling degree days 0 0  
Year to date cooling degree days 0 0  
Growing Degree Days 2 (Base 50)    
Moisture  
Dew Point 37 °F    
Average Humidity 60    
Maximum Humidity 83    
Minimum Humidity 36    
Precipitation  
Precipitation T in 0.07 in 0.59 in (1955)
Month to date precipitation 0.23 0.87  
Year to date precipitation 2.57 4.21  
Sea Level Pressure  
Sea Level Pressure 30.09 in    
Wind  
Wind Speed 11 mph (South)    
Max Wind Speed 25 mph    
Max Gust Speed 30 mph    
Visibility 10 miles    
Events      
T = Trace of Precipitation, MM = Missing Value Source: NWS Daily Summary

Daily Weather History Graph

Daily Weather History Graph

Search for Another Location

Airport or City:

Trip Planner

Search our weather history database for the weather conditions in past years. The results will help you decide how hot, cold, wet, or windy it might be!

Date:

Astronomy

Mar. 14, 2013 Rise Set
Actual Time 7:02 AM PDT 6:53 PM PDT
Civil Twilight 6:32 AM PDT 7:23 PM PDT
Nautical Twilight 5:57 AM PDT 7:58 PM PDT
Astronomical Twilight 5:21 AM PDT 8:34 PM PDT
Moon 8:05 AM PDT (3/14) 10:29 PM PDT (3/14)
Length of Visible Light 12h 51m
Length of Day
11h 50m
Waxing Crescent, 9% of the Moon is Illuminated
Mar 14
Waxing Crescent
Mar 19
First Quarter
Mar 27
Full
Apr 2
Last Quarter
Apr 10
New

Hourly Weather History & Observations

Time (PDT) Temp. Windchill Dew Point Humidity Pressure Visibility Wind Dir Wind Speed Gust Speed Precip Events Conditions
12:53 AM 46.0 °F - 39.0 °F 76% 30.17 in 10.0 mi Calm Calm - N/A   Clear
1:53 AM 43.0 °F 40.3 °F 37.0 °F 80% 30.18 in 10.0 mi ENE 4.6 mph - N/A   Clear
2:53 AM 45.0 °F 41.2 °F 37.0 °F 74% 30.17 in 10.0 mi NE 6.9 mph - N/A   Clear
3:53 AM 44.1 °F 40.1 °F 37.9 °F 79% 30.15 in 10.0 mi East 6.9 mph - N/A   Clear
4:53 AM 45.0 °F 41.8 °F 39.0 °F 80% 30.14 in 10.0 mi ENE 5.8 mph - N/A   Clear
5:53 AM 46.9 °F - 37.9 °F 71% 30.13 in 10.0 mi East 15.0 mph - N/A   Partly Cloudy
6:53 AM 45.0 °F 37.9 °F 37.9 °F 76% 30.14 in 10.0 mi East 16.1 mph - N/A   Mostly Cloudy
7:53 AM 46.9 °F - 37.9 °F 71% 30.11 in 10.0 mi East 16.1 mph - N/A   Mostly Cloudy
8:53 AM 50.0 °F - 37.0 °F 61% 30.09 in 10.0 mi East 18.4 mph - N/A   Partly Cloudy
9:53 AM 51.1 °F - 37.9 °F 61% 30.08 in 10.0 mi East 16.1 mph - N/A   Clear
10:53 AM 54.0 °F - 37.9 °F 55% 30.08 in 10.0 mi East 12.7 mph - N/A   Clear
11:53 AM 57.0 °F - 39.0 °F 51% 30.09 in 10.0 mi East 10.4 mph - N/A   Clear
12:53 PM 60.1 °F - 37.9 °F 44% 30.09 in 10.0 mi SSW 8.1 mph - N/A   Clear
1:53 PM 59.0 °F - 39.0 °F 48% 30.07 in 10.0 mi SSW 9.2 mph - N/A   Clear
2:53 PM 60.1 °F - 37.0 °F 42% 30.05 in 10.0 mi SW 9.2 mph 23.0 mph N/A   Clear
3:53 PM 62.1 °F - 36.0 °F 38% 30.04 in 10.0 mi SW 10.4 mph - N/A   Clear
4:53 PM 61.0 °F - 39.0 °F 44% 30.04 in 10.0 mi West 11.5 mph - N/A   Clear
5:53 PM 60.1 °F - 33.1 °F 36% 30.04 in 10.0 mi WSW 12.7 mph - N/A   Clear
6:53 PM 55.0 °F - 37.0 °F 51% 30.06 in 10.0 mi WNW 4.6 mph - N/A   Overcast
7:53 PM 55.0 °F - 33.1 °F 43% 30.06 in 10.0 mi West 6.9 mph - N/A   Overcast
8:53 PM 53.1 °F - 34.0 °F 48% 30.06 in 10.0 mi WSW 4.6 mph - N/A   Overcast
9:53 PM 54.0 °F - 33.1 °F 45% 30.07 in 10.0 mi WSW 8.1 mph - N/A   Mostly Cloudy
10:53 PM 55.0 °F - 33.1 °F 43% 30.08 in 10.0 mi WSW 16.1 mph 23.0 mph N/A   Overcast
11:53 PM 53.1 °F - 34.0 °F 48% 30.09 in 10.0 mi WSW 13.8 mph 25.3 mph N/A   Overcast